Location: Rio Negrinho
(26.2394°S, 49.4999°W)
Time: 01:32:36
(UTC+00:00)

H-2A R/B - Pass Details

Date: 07 June 2020
Orbit: 500 x 542 km, 97.3° (Epoch: 17 June)

Event Time Altitude Azimuth Distance (km) Brightness Sun altitude
Rises 09:13:32 0° 347° (NNW) 2,583 6.3 -10.6°
Reaches altitude 10° 09:15:53 10° 333° (NNW) 1,712 5.3 -10.1°
Maximum altitude 09:18:55 24° 277° (W) 1,086 3.8 -9.5°
Drops below altitude 10° 09:22:01 10° 221° (SW) 1,747 4.8 -8.8°
Enters shadow 09:22:35 - 217° (SW) 1,949 5.1 -8.7°
